(218723) = 2005 UY140

Discovered at Mount Lemmon on 2005-10-25 by Mt. Lemmon Survey.

Orbit

Orbit type: Main Belt

Note: WebGL enabled browser required.

epoch2024-03-31.0
epoch JD2460400.5
perihelion date2023-09-18.85173
perihelion JD2460206.35173
argument of perihelion (°)293.38853
ascending node (°)167.11113
inclination (°)6.40465
eccentricity0.1524490
perihelion distance (AU)2.2543098
Tisserand w.r.t. Jupiter3.4
ΔV w.r.t. Earth (km/sec)9.6
semimajor axis (AU)2.6597923
mean anomaly (°)44.11292
mean daily motion (°/day)0.22721250
aphelion distance (AU)3.065
period (years)4.34
P-vector [x]-0.18350736
P-vector [y]0.93772256
P-vector [z]0.29496007
Q-vector [x]-0.98270337
Q-vector [y]-0.18259064
Q-vector [z]-0.03089891
absolute magnitude16.17
phase slope0.15
uncertainty0
referenceMPEC 2024-E144
observations used635
oppositions17
arc length (days)10013
first opposition used1996
last opposition used2024
residual rms (arc-secs)0.75
perturbers coarse indicatorM-v
perturbers precise indicator003Ek
first observation date used1996-10-10.0
last observation date used2024-03-10.0
computer nameMPCLINUX
JD of orbit computation2456612.777509
perihelion JD uncertainty (days)9.2574E-05
argument of perihelion uncertainty (°)3.8755E-05
ascending node uncertainty (°)3.3166E-05
inclination uncertainty (°)6.1875E-06
eccentricity uncertainty 3.8135E-08
perihelion distance uncertainty (AU)1.0042E-07
Minimum Orbit Intersection Distances (in AU)
for orbit epoch: 2460400.5, reference: E2024-G88
Mercury1.94819
Venus1.54354
Earth1.28066
Mars0.67145
Jupiter2.10591
Saturn6.77651
Uranus15.8943
Neptune27.1478

Observations

653 total observations over interval: 1996 10 10.14722 – 2024 03 10.172312
These data are available for download (format description).

Date (UT) J2000 RA J2000 Dec Magn Location Ref
1996 10 10.14722 00 04 01.93 -03 07 03.9 19.5   809 – European Southern Observatory, La Silla MPS 168841
1996 10 10.16042 00 04 01.20 -03 07 11.6   809 – European Southern Observatory, La Silla MPS 168841
1996 10 10.17361 00 04 00.64 -03 07 15.3   809 – European Southern Observatory, La Silla MPS 168841
2001 12 11.36500 06 40 16.29 +12 23 15.6 19.1   704 – Lincoln Laboratory ETS, New Mexico MPS 168841
2001 12 11.37990 06 40 15.55 +12 23 14.7 18.9   704 – Lincoln Laboratory ETS, New Mexico MPS 168841
2001 12 11.39481 06 40 14.77 +12 23 14.4 18.9   704 – Lincoln Laboratory ETS, New Mexico MPS 168841
2001 12 11.40971 06 40 14.14 +12 23 15.3 19.4   704 – Lincoln Laboratory ETS, New Mexico MPS 168841
2002 01 09.24495 06 14 28.14 +13 05 55.5 18.7   704 – Lincoln Laboratory ETS, New Mexico MPS 168841
2002 01 09.26038 06 14 27.34 +13 05 59.0 18.8   704 – Lincoln Laboratory ETS, New Mexico MPS 168841
2002 01 09.27678 06 14 26.61 +13 06 01.6 20.0   704 – Lincoln Laboratory ETS, New Mexico MPS 168841
2002 01 09.29220 06 14 25.60 +13 06 04.3 18.9   704 – Lincoln Laboratory ETS, New Mexico MPS 168841
2002 01 09.30775 06 14 24.84 +13 06 07.1 18.8   704 – Lincoln Laboratory ETS, New Mexico MPS 168841
2003 05 02.33770 15 02 51.08 -08 38 58.5 21.0 V 691 – Steward Observatory, Kitt Peak-Spacewatch MPS 168841
2003 05 02.36571 15 02 49.63 -08 38 49.8 20.6 V 691 – Steward Observatory, Kitt Peak-Spacewatch MPS 168841
2003 05 02.39450 15 02 48.09 -08 38 40.9 20.9 V 691 – Steward Observatory, Kitt Peak-Spacewatch MPS 168841
2004 06 19.35268 20 41 43.88 -11 14 17.0 20.9 V 691 – Steward Observatory, Kitt Peak-Spacewatch MPS 168841
2004 06 19.38446 20 41 43.07 -11 14 18.3 21.0 V 691 – Steward Observatory, Kitt Peak-Spacewatch MPS 168841
2004 06 19.41286 20 41 42.37 -11 14 19.8 20.8 V 691 – Steward Observatory, Kitt Peak-Spacewatch MPS 168841
2005 10 25.32698 03 04 41.98 +08 27 26.4 19.0 V G96 – Mt. Lemmon Survey MPS 147972
2005 10 25.33267 03 04 41.73 +08 27 24.2 18.9 V G96 – Mt. Lemmon Survey MPS 147972
2005 10 25.33837 03 04 41.44 +08 27 22.0 18.9 V G96 – Mt. Lemmon Survey MPS 147972
2005 10 25.34410 03 04 41.19 +08 27 19.8 18.9 V G96 – Mt. Lemmon Survey MPS 147972
2005 10 27.30645 03 03 10.47 +08 14 39.6 18.7 R 699 – Lowell Observatory-LONEOS MPS 147972
2005 10 27.33036 03 03 09.28 +08 14 32.3   699 – Lowell Observatory-LONEOS MPS 147972
2005 10 27.35428 03 03 08.01 +08 14 23.7   699 – Lowell Observatory-LONEOS MPS 147972
2005 10 27.37819 03 03 06.88 +08 14 13.6   699 – Lowell Observatory-LONEOS MPS 147972
2005 10 28.24557 03 02 25.87 +08 08 41.1 18.8 V 703 – Catalina Sky Survey MPS 147972
2005 10 28.25087 03 02 25.65 +08 08 38.9 19.0 V 703 – Catalina Sky Survey MPS 147972
2005 10 28.25624 03 02 25.36 +08 08 36.2 18.6 V 703 – Catalina Sky Survey MPS 147972
2005 10 28.26159 03 02 25.18 +08 08 33.6 18.4 V 703 – Catalina Sky Survey MPS 147972
2005 10 30.04587 03 00 58.07 +07 57 09.7 19.5 V A50 – Andrushivka Astronomical Observatory MPS 156616
2005 10 30.06242 03 00 57.26 +07 57 04.0 18.5 V A50 – Andrushivka Astronomical Observatory MPS 156616
2005 11 02.27522 02 58 15.76 +07 36 54.1 18.2 R 644 – Palomar Mountain/NEAT MPS 150890
2005 11 02.30071 02 58 14.41 +07 36 44.1 19.2 R 644 – Palomar Mountain/NEAT MPS 150890
2005 11 02.32024 02 58 13.38 +07 36 37.6 19.3 R 644 – Palomar Mountain/NEAT MPS 150890
2005 11 03.31002 02 57 22.53 +07 30 30.7 18.3 V 703 – Catalina Sky Survey MPS 150890
2005 11 03.31431 02 57 22.46 +07 30 29.3 18.2 V 703 – Catalina Sky Survey MPS 150890
2005 11 03.31858 02 57 21.96 +07 30 28.4 18.9 V 703 – Catalina Sky Survey MPS 150890
2005 11 03.32285 02 57 21.74 +07 30 26.8 19.1 V 703 – Catalina Sky Survey MPS 150890
2005 11 05.26394 02 55 41.04 +07 18 42.8 18.7   704 – Lincoln Laboratory ETS, New Mexico MPS 149783
2005 11 05.27635 02 55 40.38 +07 18 37.0 18.8   704 – Lincoln Laboratory ETS, New Mexico MPS 149783
2005 11 05.30123 02 55 39.00 +07 18 28.8 19.7   704 – Lincoln Laboratory ETS, New Mexico MPS 149783
2005 11 05.31445 02 55 38.29 +07 18 23.8 19.3   704 – Lincoln Laboratory ETS, New Mexico MPS 149783
2005 11 10.29128 02 51 17.46 +06 49 53.4 19.1 V 703 – Catalina Sky Survey MPS 149783
2005 11 10.29771 02 51 17.02 +06 49 50.7 18.9 V 703 – Catalina Sky Survey MPS 149783
2005 11 10.30416 02 51 16.59 +06 49 48.5 18.7 V 703 – Catalina Sky Survey MPS 149783
2005 11 10.31060 02 51 16.30 +06 49 46.6 18.8 V 703 – Catalina Sky Survey MPS 149783
2005 11 25.19492 02 39 14.25 +05 44 52.9 19.0 V 703 – Catalina Sky Survey MPS 152258
2005 11 25.20243 02 39 13.93 +05 44 51.7 19.3 V 703 – Catalina Sky Survey MPS 152258
2005 11 25.20990 02 39 13.53 +05 44 51.1 19.1 V 703 – Catalina Sky Survey MPS 152258
2005 11 25.21741 02 39 13.17 +05 44 50.3 19.3 V 703 – Catalina Sky Survey MPS 152258
2005 11 29.17861 02 36 35.46 +05 34 12.5 19.8 V 703 – Catalina Sky Survey MPS 152258
2005 11 29.18502 02 36 35.24 +05 34 12.0 19.4 V 703 – Catalina Sky Survey MPS 152258
2005 11 29.19150 02 36 34.95 +05 34 10.5 19.3 V 703 – Catalina Sky Survey MPS 152258
2005 11 29.19794 02 36 34.77 +05 34 10.2 19.8 V 703 – Catalina Sky Survey MPS 152258
2005 12 05.18422 02 33 17.15 +05 24 08.6 19.0 R 699 – Lowell Observatory-LONEOS MPS 153782
2005 12 05.20792 02 33 16.48 +05 24 06.8   699 – Lowell Observatory-LONEOS MPS 153782
2005 12 05.23164 02 33 15.77 +05 24 05.9   699 – Lowell Observatory-LONEOS MPS 153782
2005 12 05.25540 02 33 15.08 +05 24 03.2   699 – Lowell Observatory-LONEOS MPS 153782
2005 12 06.23743 02 32 48.01 +05 23 10.5 19.1 V 703 – Catalina Sky Survey MPS 153782
2005 12 06.24545 02 32 47.76 +05 23 09.9 19.8 V 703 – Catalina Sky Survey MPS 153783
2005 12 06.25349 02 32 47.61 +05 23 09.5 19.4 V 703 – Catalina Sky Survey MPS 153783
2005 12 06.26153 02 32 47.29 +05 23 08.4 19.5 V 703 – Catalina Sky Survey MPS 153783
2006 12 26.49438 12 41 31.14 -04 25 16.8 21.2 V 691 – Steward Observatory, Kitt Peak-Spacewatch MPS 192260
2006 12 26.50678 12 41 31.94 -04 25 20.6 20.9 V 691 – Steward Observatory, Kitt Peak-Spacewatch MPS 192260
2006 12 26.51946 12 41 32.75 -04 25 24.5 21.4 V 691 – Steward Observatory, Kitt Peak-Spacewatch MPS 192260
2007 02 26.35640 13 10 49.54 -04 41 15.2 20.1 V G96 – Mt. Lemmon Survey MPS 201537
2007 02 26.36521 13 10 49.36 -04 41 12.4 20.2 V G96 – Mt. Lemmon Survey MPS 201537
2007 02 26.37396 13 10 49.22 -04 41 09.3 19.7 V G96 – Mt. Lemmon Survey MPS 201537
2007 02 26.38277 13 10 49.08 -04 41 07.2 19.4 V G96 – Mt. Lemmon Survey MPS 201537
2007 03 09.36646 13 06 10.32 -03 36 00.4 20.2 V 691 – Steward Observatory, Kitt Peak-Spacewatch MPS 202363
2007 03 09.38412 13 06 09.74 -03 35 53.4 20.3 V 691 – Steward Observatory, Kitt Peak-Spacewatch MPS 202363
2007 03 09.40178 13 06 09.11 -03 35 46.6 20.2 V 691 – Steward Observatory, Kitt Peak-Spacewatch MPS 202363
2007 03 16.32041 13 01 52.98 -02 46 54.6 19.4 R 699 – Lowell Observatory-LONEOS MPS 204619
2007 03 16.34597 13 01 51.97 -02 46 42.0   699 – Lowell Observatory-LONEOS MPS 204619
2007 03 16.37153 13 01 50.85 -02 46 29.5   699 – Lowell Observatory-LONEOS MPS 204619
2007 03 16.39711 13 01 49.74 -02 46 21.5   699 – Lowell Observatory-LONEOS MPS 204619
2007 03 20.24302 12 59 06.29 -02 17 25.5 20.1 V 691 – Steward Observatory, Kitt Peak-Spacewatch MPS 204619
2007 03 20.26419 12 59 05.33 -02 17 15.6 19.9 V 691 – Steward Observatory, Kitt Peak-Spacewatch MPS 204619
2007 03 20.28191 12 59 04.53 -02 17 07.9 20.1 V 691 – Steward Observatory, Kitt Peak-Spacewatch MPS 204619
2007 03 26.24072 12 54 30.27 -01 31 06.2 20.0 V 691 – Steward Observatory, Kitt Peak-Spacewatch MPS 205557
2007 03 26.25838 12 54 29.40 -01 30 58.3 19.9 V 691 – Steward Observatory, Kitt Peak-Spacewatch MPS 205557
2007 03 26.27604 12 54 28.52 -01 30 50.0 19.8 V 691 – Steward Observatory, Kitt Peak-Spacewatch MPS 205557
2009 08 19.39582 00 31 54.50 +02 16 16.4 20.7 V 691 – Steward Observatory, Kitt Peak-Spacewatch MPS 291753
2009 08 19.41397 00 31 54.31 +02 16 11.9 20.9 V 691 – Steward Observatory, Kitt Peak-Spacewatch MPS 291753
2009 08 19.43234 00 31 53.97 +02 16 07.4 20.6 V 691 – Steward Observatory, Kitt Peak-Spacewatch MPS 291753
2009 08 20.40957 00 31 39.94 +02 12 05.3   691 – Steward Observatory, Kitt Peak-Spacewatch MPS 291753
